Junction, TX

11:30 PM CST on February 20, 2017 (GMT -0600)
Kimble County

Weather History for KJCT - March, 2013

Change the Weather History Date:

Wednesday, March 13, 2013

  Actual Average Record
Temperature  
Mean Temperature 59 °F -  
Max Temperature 77 °F 67 °F 86 °F (2002)
Min Temperature 41 °F 43 °F 28 °F (2014)
Degree Days  
Heating Degree Days 6    
Growing Degree Days 9 (Base 50)    
Moisture  
Dew Point 33 °F    
Average Humidity 38    
Maximum Humidity 70    
Minimum Humidity 10    
Precipitation  
Precipitation 0.00 in - - ()
Sea Level Pressure  
Sea Level Pressure 30.26 in    
Wind  
Wind Speed 8 mph (SE)    
Max Wind Speed 15 mph    
Max Gust Speed 22 mph    
Visibility 8 miles    
Events      
Averages and records for this station are not official NWS values.
T = Trace of Precipitation, MM = Missing Value Source: NWS Daily Summary

Daily Weather History Graph

Daily Weather History Graph

Search for Another Location

Airport or City:

Trip Planner

Search our weather history database for the weather conditions in past years. The results will help you decide how hot, cold, wet, or windy it might be!

Date:

Astronomy

Mar. 13, 2013 Rise Set
Actual Time 7:51 AM CDT 7:46 PM CDT
Civil Twilight 7:27 AM CDT 8:10 PM CDT
Nautical Twilight 6:59 AM CDT 8:38 PM CDT
Astronomical Twilight 6:31 AM CDT 9:06 PM CDT
Moon 8:42 AM CDT (3/13) 9:51 PM CDT (3/13)
Length of Visible Light 12h 43m
Length of Day
11h 55m
Waxing Crescent, 4% of the Moon is Illuminated
Mar 13
Waxing Crescent
Mar 19
First Quarter
Mar 27
Full
Apr 2
Last Quarter
Apr 10
New

Hourly Weather History & Observations

Time (CDT) Temp. Windchill Dew Point Humidity Pressure Visibility Wind Dir Wind Speed Gust Speed Precip Events Conditions
12:51 AM 55.0 °F - 36.0 °F 49% 30.21 in 9.0 mi NE 9.2 mph 16.1 mph N/A   Clear
1:51 AM 54.0 °F - 35.1 °F 49% 30.22 in 9.0 mi ENE 6.9 mph - N/A   Clear
2:51 AM 52.0 °F - 34.0 °F 50% 30.22 in 9.0 mi ENE 5.8 mph - N/A   Clear
3:51 AM 50.0 °F - 30.9 °F 48% 30.23 in 9.0 mi ENE 8.1 mph - N/A   Clear
4:51 AM 48.0 °F - 30.9 °F 52% 30.24 in 9.0 mi Calm Calm - N/A   Clear
5:51 AM 44.1 °F 41.5 °F 32.0 °F 63% 30.25 in 9.0 mi East 4.6 mph - N/A   Clear
6:51 AM 42.1 °F 38.4 °F 32.0 °F 67% 30.27 in 8.0 mi ESE 5.8 mph - N/A   Clear
7:51 AM 41.0 °F 36.4 °F 32.0 °F 70% 30.31 in 7.0 mi ESE 6.9 mph - N/A   Clear
8:51 AM 44.1 °F 42.5 °F 32.0 °F 63% 30.33 in 7.0 mi ESE 3.5 mph - N/A   Clear
9:51 AM 51.1 °F - 30.9 °F 46% 30.36 in 8.0 mi East 9.2 mph - N/A   Clear
10:47 AM 55.4 °F - 33.8 °F 44% 30.42 in 1.5 mi East 6.9 mph - N/A   Haze
10:51 AM 57.0 °F - 34.0 °F 42% 30.36 in 6.0 mi East 8.1 mph - N/A   Haze
11:51 AM 63.0 °F - 34.0 °F 34% 30.34 in 7.0 mi East 4.6 mph - N/A   Clear
12:51 PM 69.1 °F - 33.1 °F 26% 30.31 in 8.0 mi South 13.8 mph 21.9 mph N/A   Clear
1:51 PM 73.0 °F - 32.0 °F 22% 30.26 in 8.0 mi SSW 12.7 mph 17.3 mph N/A   Clear
2:51 PM 75.0 °F - 32.0 °F 21% 30.22 in 8.0 mi South 15.0 mph 19.6 mph N/A   Clear
3:51 PM 75.9 °F - 32.0 °F 20% 30.21 in 8.0 mi SSW 11.5 mph - N/A   Clear
4:51 PM 75.9 °F - 30.9 °F 19% 30.19 in 8.0 mi Variable 5.8 mph - N/A   Clear
5:51 PM 75.9 °F - 30.0 °F 19% 30.18 in 8.0 mi WSW 9.2 mph - N/A   Clear
6:51 PM 75.0 °F - 30.0 °F 19% 30.19 in 8.0 mi SSW 8.1 mph - N/A   Clear
7:51 PM 72.0 °F - 30.9 °F 22% 30.20 in 7.0 mi South 6.9 mph - N/A   Clear
8:51 PM 66.9 °F - 34.0 °F 30% 30.22 in 9.0 mi South 6.9 mph - N/A   Clear
9:51 PM 64.0 °F - 33.1 °F 31% 30.23 in 9.0 mi South 4.6 mph - N/A   Clear
10:51 PM 63.0 °F - 34.0 °F 34% 30.24 in 9.0 mi South 11.5 mph - N/A   Clear
11:51 PM 62.1 °F - 36.0 °F 38% 30.24 in 9.0 mi South 10.4 mph - N/A   Clear